www.pogodaiklimat.ru

Погода и климат >> Архив погоды >> Россия >> Чукотка >> Илирней


ПОГОДА в Илирнее

  • Прогноз погоды в Илирнее
  • Монитор погоды в Илирнее
  • Климат города

АРХИВ ПОГОДЫ в Илирнее

Время (UTC), дата Ветер
(напр.,м/с)
 
Видим.   Явления Облачность Т
(С)
Тd
(С)
f
(%)
Тe
(С)
Тes
(С)
Комфортность P
(гПа)
Po
(гПа)
Тmin
(С)
Tmax
(С)
R
(мм)
R24
(мм)
S
(см)
06 17.05 В 3
{4}
50 км 8/0
[Ac trans]
+5.3 -0.2 68 +2 +4 1009.0 966.4
09 17.05 В 3
{5}
50 км 10/0
[Ac trans Cs]
+2.7 -0.9 77 -1 -1 1010.3 967.1 +5.5
12 17.05 В 2
{6}
50 км 10/0
[Ac und]
+0.8 -1.5 85 -3 -3 1011.2 967.7
15 17.05 штиль 0
{4}
50 км 10/0
[Ac und]
-1.7 -2.8 92 -3 -3 1011.5 967.7
18 17.05 штиль 0
{3}
50 км 4/0
[Ac trans]
+1.2 -2.0 79 0 +2 1010.4 967.1
21 17.05 штиль 0
{3}
50 км ясно +4.2 -1.3 67 +4 +12 1009.0 966.2 -1.8
00 18.05 В 3
{5}
50 км ясно +7.0 -1.2 56 +5 +13 1008.0 965.7
03 18.05 В 3
{5}
50 км ясно +7.0 -1.2 56 +5 +12 1008.0 965.7
06 18.05 В 4
{8}
50 км 8/0
[Ci]
+7.6 -0.5 56 +5 +7 1007.1 964.9
09 18.05 В 4
{10}
50 км 10/0
[Ci]
+4.3 -1.2 67 0 +1 1007.4 964.7 +7.6
12 18.05 ЮВ 1
{7}
50 км 10/0
[Ci]
+1.1 -1.6 82 -1 -1 1008.6 965.1
15 18.05 В 4
{8}
50 км 10/0
[Ci]
-0.1 -2.1 86 -6 -6 1008.6 965.0
18 18.05 Ю 1
{7}
50 км 10/0
[Ci]
+1.4 -1.8 79 -0 +1 1007.9 964.7
21 18.05 В 3
{7}
50 км 10/0
[Ci]
+4.2 -0.2 73 +1 +5 1007.3 964.6 -0.1 15
00 19.05 В 4
{8}
50 км 8/0
[Ci]
+5.9 +0.5 68 +2 +8 1006.5 964.1
03 19.05 В 5
{8}
50 км 3/0
[Ci]
+7.0 +0.4 63 +3 +8 1006.1 963.9
06 19.05 В 4
{9}
50 км ясно +6.7 +0.9 66 +3 +6 1005.9 963.5
09 19.05 В 5
{9}
50 км ясно +4.4 +0.5 76 -0 -0 1006.6 953.9 +7.3
12 19.05 В 2
{7}
50 км ясно +2.1 -0.4 84 -1 -1 1007.3 964.3
15 19.05 штиль 0
{1}
50 км ясно +1.3 -0.9 85 0 0 1007.5 964.3
18 19.05 штиль 0
{2}
50 км ясно +0.7 -1.9 83 -0 +2 1007.5 964.2
21 19.05 В 4
{9}
50 км 8/0
[Ac trans]
+5.4 +0.8 72 +2 +4 1006.5 964.0 +0.3
00 20.05 В 6
{7}
50 км 10/6 600 м
[Sc Ac As]
+7.1 +1.1 66 +3 +3 1006.2 964.0
03 20.05 В 3
{9}
50 км 9/9 600 м
[Sc]
+7.2 +1.3 66 +5 +5 1005.8 963.6
06 20.05 В 3
{9}
50 км 10/10 600 м
[Sc]
+6.6 +1.1 68 +4 +4 1005.9 963.5
09 20.05 В 5
{8}
50 км 10/10 600 м
[Sc]
+4.0 +0.6 78 -1 -1 1006.5 963.8 +7.2
12 20.05 В 3
{8}
50 км 10/10 600 м
[Sc]
+2.0 +0.1 87 -2 -2 1007.0 964.0
15 20.05 В 2
{6}
50 км 10/10 600 м
[Sc]
+2.0 +0.1 87 -1 -1 1006.4 963.4
18 20.05 В 2
{7}
50 км 10/10 600 м
[Sc]
+3.1 -1.0 74 0 0 1007.0 962.5
21 20.05 В 6
{10}
50 км 10/10 600 м
[Sc]
+3.3 -0.5 76 -2 -2 1005.1 962.3 +2.0
00 21.05 В 2
{11}
50 км 10/10 600 м
[Sc]
+2.6 -2.3 70 -0 -0 1005.4 962.5
03 21.05 ЮВ 4
{10}
50 км 8/8 600 м
[Sc]
+3.3 -2.7 65 -1 0 1004.2 961.4
06 21.05 В 7
{11}
50 км 10/10 600 м
[Sc]
+5.1 -2.8 57 0 0 1003.1 960.7
09 21.05 ЮВ 4
{10}
50 км 9/9 600 м
[Sc]
+2.3 -3.7 65 -2 -2 1003.4 961.1 +5.1
12 21.05 С 1
{6}
50 км 9/9 600 м
[Sc]
+0.1 -3.3 78 -2 -2 1004.7 961.5
15 21.05 штиль 0
{3}
50 км 10/4 600 м
[Sc Ac As]
-0.2 -3.2 80 -1 -1 1004.8 961.4
18 21.05 В 1
{5}
50 км 10/0
[Ac und]
+1.2 -3.7 70 -0 0 1004.8 961.7
21 21.05 В 2
{7}
50 км 10/0
[Ac und]
+3.1 -2.3 68 0 +2 1004.8 962.0 -0.2
00 22.05
{08}
н/о -2.3 1004.7 962.3
03 22.05 В 4
{10}
50 км 10/10 600 м
[Sc]
+6.2 -2.3 54 +3 +3 1004.8 962.5
06 22.05 В 1
{7}
50 км 10/10 600 м
[Sc]
+5.9 -3.1 52 +5 +5 1005.3 962.8
09 22.05 В 1
{5}
50 км 4/4 600 м
[Sc]
+5.4 -3.4 53 +5 +5 1006.2 963.7 +6.2
12 22.05 штиль 0
{3}
50 км 10/0
[Ac und]
-0.3 -3.3 80 -1 -1 1007.9 964.6
15 22.05 С 1
{2}
50 км 4/0
[Ac trans]
-1.3 -3.9 82 -3 -3 1008.5 964.9
18 22.05 штиль 0
{2}
50 км 10/0
[Ac und]
+1.0 -3.2 74 0 +1 1008.7 965.3
21 22.05 СВ 1
{3}
50 км 10/0
[Ac und]
+4.0 -3.2 59 +3 +5 1007.8 965.0 -1.3
00 23.05 С 2
{4}
50 км 10/0
[Ac und]
+6.3 -3.6 49 +5 +8 1007.0 964.6
03 23.05 В 5
{7}
50 км 10/0
[Ac und]
+6.4 -3.8 48 +3 +4 1007.1 964.7
06 23.05 В 4
{7}
50 км 3/0
[Ac trans]
+5.3 -4.3 50 +2 +4 1007.9 965.3
09 23.05 В 5
{8}
50 км 3/0
[Ac trans]
+2.4 -6.7 51 -2 -2 1009.7 966.6 +6.6
12 23.05 СВ 1
{6}
50 км ясно -2.2 -6.5 72 -4 -4 1011.9 967.9
15 23.05 штиль 0
{3}
50 км ясно -5.2 -8.1 80 -6 -6 1012.7 968.2
18 23.05 штиль 0
{2}
50 км ясно -1.3 -7.2 64 -2 0 1011.8 968.0
21 23.05 штиль 0
{4}
50 км ясно +1.6 -7.9 49 +1 +10 опасность
простуды
1011.0 967.7 -5.5
00 24.05 ЮВ 1
{4}
50 км ясно +3.7 -7.8 43 +3 +16 опасность
простуды
1010.6 967.6
03 24.05 Ю 1
{8}
50 км ясно +5.2 -7.5 39 +5 +16 опасность
простуды
1009.9 967.2

 

Местоположение метеостанции Илирней (Чукотка, Россия): широта 67.25 долгота 167.90 высота над уровнем моря 354 м.

В архиве по умолчанию представлена погода в Илирнее за последнюю неделю. Архивные данные за месяц целиком и за предыдущие месяцы, начиная с января 2011 года, Вы можете получить, выбрав интересующий диапазон дат из раскрывающегося списка и нажав кнопку "Ввод!".

Внимание! Время в таблицах - всемирное. Для получения местного времени необходимо прибавить поправку, которая в Илирнее равна 12 ч.

Смотрите также архив погоды в соседних городах и на ближайших метеорологических станциях:

Погода в Билибино (Чукотка, Россия) (109 км)
Погода в Баимке (Чукотка, Россия) (180 км)
Погода на Островном (Чукотка, Россия) (187 км)
Погода в Чауне (Чукотка, Россия) (215 км)
Погода в Эньмувееме (Чукотка, Россия) (255 км)
Погода в Раучуе (Чукотка, Россия) (257 км)
Погода в Майской (Чукотка, Россия) (276 км)
Погода в Певеке (Чукотка, Россия) (288 км)
Погода в 21 км (Чукотка, Россия) (290 км)
Погода в Комсомольской (Чукотка, Россия) (291 км)

Пояснения к столбцам:

Ветер - указаны скорость ветра в м/с - средняя за 10 мин, порывы в срок и между сроками (в фигурных скобках) и направление, откуда дует ветер: С - северный, СВ - северо-восточный, В - восточный, ЮВ - юго-восточный, Ю - южный, ЮЗ - юго-западный, З - западный, СЗ - северо-западный.
Видимость - горизонтальная дальность видимости в метрах или километрах. При видимости от 1 до 10 км при отсутствии осадков обычно наблюдается дымка, при ухудшении видимости до 1 км и менее - туман. В сухую погоду видимость может ухудшаться дымом, пылью или мглою.
Явления - указаны атмосферные явления, наблюдавшиеся в срок или в последний час перед сроком; фигурными скобками обозначены явления, наблюдавшиеся между сроками (за 1-3 часа до срока); квадратными скобками обозначены град или гололедные отложения с указанием их диаметра в мм.
Облачность - указаны через наклонную черту общая и нижняя облачность в баллах и высота нижней границы облаков в метрах; квадратными скобками обозначены формы облаков: Ci - перистые, Cs - перисто-слоистые, Cc - перисто-кучевые, Ac - высококучевые, As - высокослоистые, Sc - слоисто-кучевые, Ns - слоисто-дождевые, Cu - кучевые, Cb - кучево-дождевые. Подробнее классификацию облаков см. в Атласе облаков (PDF).
T - Температура воздуха - температура, измеренная на высоте 2 м над землей.
Td - Температура точки росы - температура, при понижении до которой содержащийся в воздухе водяной пар достигнет насыщения.
f - Относительная влажность воздуха - влажноcть воздуха, измеренная на высоте 2 м над землей.
Te - Эффективная температура - температура, которую ощущает одетый по сезону человек в тени. Характеристика душности погоды. При расчете учитывается влияние влажности воздуха и скорости ветра на теплоощущения человека.
Tes - Эффективная температура на солнце - температура, которую ощущает человек, с поправкой на солнечный нагрев. Характеристика знойности погоды. Зависит от высоты солнца над горизонтом, облачности и скорости ветра. Ночью, в пасмурную погоду, а также при ветре 12 м/с и более поправка равна нулю.
P - Атмосферное давление - приведенное к уровню моря атмосферное давление.
Po - Атмосферное давление - измеренное на уровне метеостанции атмосферное давление.
Tmin - Минимальная температура - минимум температуры воздуха на высоте 2 м над землей.
Tmax - Максимальная температура - максимум температуры воздуха на высоте 2 м над землей.
R - Количество осадков - Количество выпавших осадков за период времени, мм. При наведении курсора мыши на число - период времени, за который выпало указанное количество осадков.
R24 - Количество осадков - Количество выпавших осадков за 24 часа, мм.
S - Снежный покров - Высота снежного покрова, см. При наведении курсора мыши на число - состояние снежного покрова и степень покрытия местности в баллах.